Hauptseite
METAR-TAF:

METAR-TAF

Flughäfen :

Alpnach, Schweiz

Militärflugplatz Alpnach

Breite: 46-56-19N, Länge: 8-17-03E, Höhe: 440 m

Beobachtung

Neuester Wetterbericht von vor 30 Minuten, um 00:50 UTC
Wind 10 kt aus Nordost, variierte zwischen Nord/Nordost und Ost
Temperatur -1°C
Luftfeuchtigkeit 69%
Luftdruck 1014 hPa
Sichtweite 10 km oder mehr
Geschlossene Wolkendecke in der Höhe von 2700 ft

METAR: LSMA 250050Z AUTO 05010KT 020V080 9999NDV OVC027 M01/M06 Q1014 RMK

Zeit: 02:20 (01:20 UTC)


TAF: fehlend

Wetterbeobachtungen und Prognosen von mehr als 4000 Flughäfen (METAR und TAF Bericht).

Die verfügbaren Stationen werden durch gelbe und rote Markierungen auf der Karte dargestellt.

Führen Sie die Maus auf sie, um den Namen der Station zu sehen.

Darauf klicken, um die Beobachtung von Wetterbeobachtungen und Prognosen zu sehen.

Um die Karte zu ändern : klicken Sie auf den grünen Tasten mit einem schwarzen Kreuz Zum Vergrößern, auf den grünen Button mit einem Gedankenstrich zu verkleinern, oder auf die grünen Pfeile für benachbarte Karten.


METAR-TAF: